Weather History for Martha's Vineyard, MA

Change the Weather History Date:

Monday, February 18, 2013

  Actual Average Record
Temperature  
Mean Temperature 24 °F -  
Max Temperature 30 °F 38 °F 58 °F (1976)
Min Temperature 18 °F 22 °F -1 °F (1979)
Degree Days  
Heating Degree Days 41    
Moisture  
Dew Point 4 °F    
Average Humidity 41    
Maximum Humidity 52    
Minimum Humidity 30    
Precipitation  
Precipitation 0.00 in - - ()
Sea Level Pressure  
Sea Level Pressure 29.98 in    
Wind  
Wind Speed 19 mph (WNW)    
Max Wind Speed 26 mph    
Max Gust Speed 40 mph    
Visibility 10 miles    
Events Snow    
Averages and records for this station are not official NWS values.
T = Trace of Precipitation, MM = Missing Value Source: NWS Daily Summary

Daily Weather History Graph

Daily Weather History Graph

Search for Another Location

Airport:

Trip Planner

Search our weather history database for the weather conditions in past years. The results will help you decide how hot, cold, wet, or windy it might be!

Date:

Astronomy

Feb. 18, 2013 Rise Set
Actual Time 6:33 AM EST 5:20 PM EST
Civil Twilight 6:04 AM EST 5:48 PM EST
Nautical Twilight 5:32 AM EST 6:20 PM EST
Astronomical Twilight 5:00 AM EST 6:52 PM EST
Moon 11:01 AM EST (2/18) 1:11 AM EST (2/18)
Length of Visible Light 11h 43m
Length of Day
10h 47m
First Quarter, 58% of the Moon is Illuminated
Feb 18
First Quarter
Feb 25
Full
Mar 4
Last Quarter
Mar 11
New
Mar 19
First Quarter

Hourly Weather History & Observations

Time (EST) Temp. Windchill Dew Point Humidity Pressure Visibility Wind Dir Wind Speed Gust Speed Precip Events Conditions
12:53 AM 18.0 °F 0.9 °F 3.0 °F 52% 29.69 in 8.0 mi NW 21.9 mph 34.5 mph 0.00 in Snow Light Snow
1:53 AM 18.0 °F 2.6 °F 3.0 °F 52% 29.73 in 9.0 mi WNW 17.3 mph 39.1 mph 0.00 in Snow Light Snow
2:53 AM 18.0 °F 2.2 °F 3.0 °F 52% 29.73 in 9.0 mi WNW 18.4 mph 35.7 mph 0.00 in Snow Light Snow
3:53 AM 18.0 °F 0.2 °F 1.9 °F 50% 29.77 in 8.0 mi NW 24.2 mph 33.4 mph 0.00 in Snow Light Snow
4:53 AM 18.0 °F 0.6 °F 1.9 °F 50% 29.81 in 9.0 mi NW 23.0 mph 39.1 mph 0.00 in Snow Light Snow
5:53 AM 18.0 °F 0.2 °F 1.9 °F 50% 29.84 in 9.0 mi WNW 24.2 mph 33.4 mph 0.00 in Snow Light Snow
6:53 AM 18.0 °F -0.5 °F 3.0 °F 52% 29.88 in 8.0 mi WNW 26.5 mph 40.3 mph 0.00 in Snow Light Snow
7:53 AM 19.0 °F 3.2 °F 3.0 °F 50% 29.93 in 10.0 mi WNW 19.6 mph 36.8 mph 0.00 in   Clear
9:53 AM 23.0 °F 6.9 °F 3.9 °F 44% 29.97 in 10.0 mi NW 24.2 mph 36.8 mph N/A   Clear
10:53 AM 25.0 °F 10.6 °F 3.9 °F 41% 29.99 in 10.0 mi NW 20.7 mph 33.4 mph N/A   Clear
11:53 AM 27.0 °F 11.9 °F 5.0 °F 39% 29.99 in 10.0 mi NW 25.3 mph 33.4 mph N/A   Clear
12:53 PM 30.0 °F 19.1 °F 5.0 °F 35% 30.01 in 10.0 mi WNW 15.0 mph 34.5 mph N/A   Clear
1:53 PM 30.0 °F 16.0 °F 3.0 °F 32% 30.01 in 10.0 mi WNW 25.3 mph 38.0 mph N/A   Clear
2:53 PM 30.0 °F 16.6 °F 1.9 °F 30% 30.03 in 10.0 mi WNW 23.0 mph 34.5 mph N/A   Clear
3:53 PM 30.0 °F 18.7 °F 3.0 °F 32% 30.06 in 10.0 mi West 16.1 mph 27.6 mph N/A   Clear
4:53 PM 30.0 °F 20.5 °F 3.0 °F 32% 30.09 in 10.0 mi West 11.5 mph 26.5 mph N/A   Clear
5:53 PM 28.9 °F 20.4 °F 3.9 °F 35% 30.11 in 10.0 mi WNW 9.2 mph - N/A   Clear
6:53 PM 30.0 °F 21.7 °F 3.0 °F 32% 30.13 in 10.0 mi WNW 9.2 mph 20.7 mph N/A   Clear
7:53 PM 30.0 °F 20.5 °F 3.9 °F 33% 30.14 in 10.0 mi West 11.5 mph 21.9 mph N/A   Clear
8:53 PM 30.0 °F 21.1 °F 3.9 °F 33% 30.16 in 10.0 mi West 10.4 mph 20.7 mph N/A   Clear
9:53 PM 30.0 °F 22.4 °F 7.0 °F 38% 30.17 in 10.0 mi West 8.1 mph - N/A   Clear
10:53 PM 30.0 °F 24.1 °F 10.0 °F 43% 30.18 in 10.0 mi Variable 5.8 mph - N/A   Clear
11:53 PM 30.0 °F 21.7 °F 10.0 °F 43% 30.18 in 10.0 mi West 9.2 mph - N/A   Clear